TimeEDT,TemperatureF,Dew PointF,Humidity,Sea Level PressureIn,VisibilityMPH,Wind Direction,Wind SpeedMPH,Gust SpeedMPH,PrecipitationIn,Events,Conditions,WindDirDegrees,DateUTC
12:56 AM,64.0,57.0,78,29.96,10.0,Calm,Calm,-,N/A,,Mostly Cloudy,0,2013-04-15 04:56:00
1:56 AM,62.1,57.9,86,29.97,10.0,NW,4.6,-,N/A,,Overcast,320,2013-04-15 05:56:00
2:13 AM,62.6,57.2,82,29.98,10.0,NNW,3.5,-,N/A,,Overcast,330,2013-04-15 06:13:00
2:56 AM,63.0,57.0,81,29.95,10.0,Calm,Calm,-,N/A,,Overcast,0,2013-04-15 06:56:00
3:32 AM,62.6,57.2,82,29.96,10.0,NNW,3.5,-,N/A,,Overcast,340,2013-04-15 07:32:00
3:44 AM,62.6,57.2,82,29.96,10.0,North,3.5,-,N/A,,Overcast,350,2013-04-15 07:44:00
3:56 AM,63.0,57.0,81,29.95,10.0,NNW,5.8,-,N/A,,Overcast,340,2013-04-15 07:56:00
4:56 AM,63.0,55.9,78,29.95,10.0,North,4.6,-,N/A,,Overcast,10,2013-04-15 08:56:00
5:56 AM,62.1,57.9,86,29.94,10.0,NNE,3.5,-,0.01,,Overcast,30,2013-04-15 09:56:00
6:56 AM,63.0,57.0,81,29.98,10.0,NW,3.5,-,N/A,,Overcast,320,2013-04-15 10:56:00
7:56 AM,63.0,57.0,81,29.99,10.0,Calm,Calm,-,0.00,Rain,Light Rain,0,2013-04-15 11:56:00
8:56 AM,64.9,59.0,81,30.02,10.0,North,3.5,-,0.00,,Overcast,350,2013-04-15 12:56:00
9:56 AM,68.0,60.1,76,30.02,10.0,Variable,3.5,-,N/A,,Mostly Cloudy,0,2013-04-15 13:56:00
10:28 AM,68.0,60.8,78,30.03,10.0,ENE,6.9,-,N/A,,Overcast,60,2013-04-15 14:28:00
10:56 AM,68.0,60.1,76,30.04,10.0,East,6.9,-,N/A,,Overcast,90,2013-04-15 14:56:00
11:56 AM,68.0,60.1,76,30.06,10.0,East,3.5,-,N/A,,Overcast,80,2013-04-15 15:56:00
12:56 PM,70.0,61.0,73,30.06,10.0,East,6.9,-,N/A,,Overcast,90,2013-04-15 16:56:00
1:56 PM,72.0,61.0,68,30.07,10.0,East,4.6,-,N/A,,Overcast,90,2013-04-15 17:56:00
2:52 PM,71.6,60.8,69,30.08,10.0,Variable,6.9,-,N/A,,Overcast,0,2013-04-15 18:52:00
2:56 PM,71.1,61.0,70,30.08,10.0,ESE,8.1,-,N/A,,Overcast,110,2013-04-15 18:56:00
3:56 PM,73.0,61.0,66,30.07,10.0,ESE,5.8,-,N/A,,Mostly Cloudy,120,2013-04-15 19:56:00
4:56 PM,75.0,61.0,62,30.06,10.0,East,6.9,-,N/A,,Mostly Cloudy,100,2013-04-15 20:56:00
5:56 PM,73.9,61.0,64,30.08,10.0,ESE,8.1,-,N/A,,Mostly Cloudy,120,2013-04-15 21:56:00
6:56 PM,73.0,61.0,66,30.08,10.0,ESE,8.1,-,N/A,,Mostly Cloudy,120,2013-04-15 22:56:00
7:56 PM,71.1,61.0,70,30.10,10.0,ESE,5.8,-,N/A,,Scattered Clouds,120,2013-04-15 23:56:00
8:56 PM,70.0,62.1,76,30.12,10.0,East,3.5,-,N/A,,Scattered Clouds,90,2013-04-16 00:56:00
9:56 PM,68.0,62.1,81,30.14,10.0,Calm,Calm,-,N/A,,Partly Cloudy,0,2013-04-16 01:56:00
10:56 PM,64.0,60.1,87,30.16,10.0,Calm,Calm,-,N/A,,Partly Cloudy,0,2013-04-16 02:56:00
11:56 PM,63.0,59.0,87,30.17,10.0,Calm,Calm,-,N/A,,Clear,0,2013-04-16 03:56:00